• en France
  • Liste des pays
  • À 7 jours
  • Température de l'eau
  • Carte satellitaire
  • Carte météo
  • Widgets météo
  • user-avatar
    Se connecter

    Météo par heure à Alajuela

    Ce jour, 21 Mai, Lundi

    Heure Température Précipitation Vent Pression Humidité
    00:00 +20°C° 0 mm 0 m/s 680 mmHg 88%
    01:00 +19°C° 0 mm 0 m/s 680 mmHg 88%
    02:00 +19°C° 0 mm 0 m/s 680 mmHg 88%
    03:00 +19°C° 0 mm 0 m/s 679 mmHg 87%
    04:00 +19°C° 0 mm 0 m/s 679 mmHg 86%
    05:00 +20°C° 0 mm 0 m/s 680 mmHg 85%
    06:00 +20°C° 0 mm 0 m/s 680 mmHg 84%
    07:00 +22°C° 0 mm 0 m/s 681 mmHg 77%
    08:00 +23°C° 0 mm 0 m/s 681 mmHg 71%
    09:00 +27°C° 0 mm 1 m/s 682 mmHg 64%
    10:00 +28°C° 0,2 mm 1 m/s 682 mmHg 63%
    11:00 +28°C° 0,2 mm 1 m/s 681 mmHg 62%
    12:00 +28°C° 0,2 mm 1 m/s 681 mmHg 62%
    13:00 +28°C° 1 mm 1 m/s 681 mmHg 65%
    14:00 +27°C° 1 mm 1 m/s 680 mmHg 69%
    15:00 +26°C° 1 mm 1 m/s 679 mmHg 73%
    16:00 +25°C° 1,7 mm 1 m/s 679 mmHg 78%
    17:00 +24°C° 1,7 mm 1 m/s 679 mmHg 83%
    18:00 +23°C° 1,7 mm 1 m/s 679 mmHg 88%
    19:00 +23°C° 3 mm 1 m/s 679 mmHg 89%
    20:00 +23°C° 3 mm 1 m/s 680 mmHg 89%
    21:00 +20°C° 3 mm 0 m/s 680 mmHg 90%
    22:00 +20°C° 3,7 mm 0 m/s 680 mmHg 90%
    23:00 +20°C° 3,7 mm 0 m/s 680 mmHg 89%

    Demain, 22 Mai, Mardi

    Heure Température Précipitation Vent Pression Humidité
    00:00 +22°C° 3,7 mm 1 m/s 680 mmHg 88%
    01:00 +20°C° 0,7 mm 0 m/s 680 mmHg 88%
    02:00 +20°C° 0,7 mm 0 m/s 679 mmHg 88%
    03:00 +20°C° 0,7 mm 0 m/s 679 mmHg 88%
    04:00 +20°C° 0 mm 0 m/s 679 mmHg 87%
    05:00 +20°C° 0 mm 0 m/s 679 mmHg 86%
    06:00 +20°C° 0 mm 0 m/s 680 mmHg 86%
    07:00 +22°C° 0 mm 0 m/s 680 mmHg 79%
    08:00 +23°C° 0 mm 0 m/s 681 mmHg 72%
    09:00 +27°C° 0 mm 1 m/s 682 mmHg 65%
    10:00 +28°C° 0,2 mm 1 m/s 682 mmHg 65%
    11:00 +28°C° 0,2 mm 1 m/s 681 mmHg 64%
    12:00 +28°C° 0,2 mm 1 m/s 681 mmHg 63%
    13:00 +27°C° 0,8 mm 1 m/s 681 mmHg 67%
    14:00 +27°C° 0,8 mm 1 m/s 680 mmHg 72%
    15:00 +26°C° 0,8 mm 1 m/s 679 mmHg 76%
    16:00 +25°C° 1,9 mm 1 m/s 679 mmHg 81%
    17:00 +24°C° 1,9 mm 1 m/s 679 mmHg 86%
    18:00 +23°C° 1,9 mm 1 m/s 679 mmHg 91%
    19:00 +22°C° 1,6 mm 1 m/s 680 mmHg 91%
    20:00 +22°C° 1,6 mm 1 m/s 680 mmHg 91%
    21:00 +22°C° 1,6 mm 1 m/s 681 mmHg 91%
    22:00 +22°C° 0,7 mm 1 m/s 681 mmHg 90%
    23:00 +20°C° 0,7 mm 0 m/s 681 mmHg 89%

    Après-demain, 23 Mai, Mercredi

    Heure Température Précipitation Vent Pression Humidité
    00:00 +20°C° 0,7 mm 0 m/s 680 mmHg 88%
    01:00 +20°C° 0,2 mm 0 m/s 680 mmHg 89%
    02:00 +20°C° 0,2 mm 0 m/s 680 mmHg 89%
    03:00 +19°C° 0,2 mm 0 m/s 679 mmHg 89%
    04:00 +20°C° 0,2 mm 0 m/s 680 mmHg 88%
    05:00 +20°C° 0,2 mm 0 m/s 680 mmHg 87%
    06:00 +20°C° 0,2 mm 0 m/s 680 mmHg 86%
    07:00 +21°C° 0,2 mm 0 m/s 681 mmHg 83%
    08:00 +22°C° 0,2 mm 0 m/s 681 mmHg 80%
    09:00 +23°C° 0,2 mm 0 m/s 682 mmHg 76%
    10:00 +25°C° 0,1 mm 1 m/s 682 mmHg 74%
    11:00 +26°C° 0,1 mm 1 m/s 682 mmHg 71%
    12:00 +26°C° 0,1 mm 1 m/s 682 mmHg 69%
    13:00 +26°C° 0,3 mm 1 m/s 681 mmHg 71%
    14:00 +26°C° 0,3 mm 1 m/s 680 mmHg 72%
    15:00 +26°C° 0,3 mm 1 m/s 680 mmHg 74%
    16:00 +25°C° 0,6 mm 1 m/s 680 mmHg 78%
    17:00 +24°C° 0,6 mm 1 m/s 680 mmHg 82%
    18:00 +21°C° 0,6 mm 0 m/s 680 mmHg 86%
    19:00 +21°C° 0,3 mm 0 m/s 681 mmHg 87%
    20:00 +20°C° 0,3 mm 0 m/s 681 mmHg 88%
    21:00 +20°C° 0,3 mm 0 m/s 682 mmHg 89%
    22:00 +20°C° 0,1 mm 0 m/s 681 mmHg 89%
    23:00 +20°C° 0,1 mm 0 m/s 681 mmHg 89%

    24 Mai, Jeudi

    Heure Température Précipitation Vent Pression Humidité
    00:00 +20°C° 0,1 mm 0 m/s 681 mmHg 89%
    01:00 +20°C° 0 mm 0 m/s 681 mmHg 89%
    02:00 +20°C° 0 mm 0 m/s 680 mmHg 89%
    03:00 +19°C° 0 mm 0 m/s 680 mmHg 89%
    04:00 +20°C° 0 mm 0 m/s 680 mmHg 88%
    05:00 +20°C° 0 mm 0 m/s 680 mmHg 88%
    06:00 +20°C° 0 mm 0 m/s 681 mmHg 87%
    07:00 +22°C° 0 mm 0 m/s 681 mmHg 79%
    08:00 +26°C° 0 mm 1 m/s 682 mmHg 71%
    09:00 +28°C° 0 mm 1 m/s 683 mmHg 64%
    10:00 +28°C° 0,6 mm 1 m/s 683 mmHg 65%
    11:00 +28°C° 0,6 mm 1 m/s 682 mmHg 66%
    12:00 +28°C° 0,6 mm 1 m/s 682 mmHg 66%
    13:00 +27°C° 1 mm 1 m/s 681 mmHg 68%
    14:00 +27°C° 1 mm 1 m/s 681 mmHg 70%
    15:00 +26°C° 1 mm 1 m/s 680 mmHg 72%
    16:00 +25°C° 0,9 mm 1 m/s 680 mmHg 76%
    17:00 +24°C° 0,9 mm 1 m/s 680 mmHg 80%
    18:00 +23°C° 0,9 mm 1 m/s 680 mmHg 84%
    19:00 +21°C° 0,8 mm 0 m/s 681 mmHg 86%
    20:00 +21°C° 0,8 mm 0 m/s 681 mmHg 87%
    21:00 +20°C° 0,8 mm 0 m/s 682 mmHg 89%
    22:00 +20°C° 0,5 mm 0 m/s 681 mmHg 89%
    23:00 +20°C° 0,5 mm 0 m/s 681 mmHg 89%

    25 Mai, Vendredi

    Heure Température Précipitation Vent Pression Humidité
    00:00 +20°C° 0,5 mm 0 m/s 681 mmHg 89%
    01:00 +20°C° 0,3 mm 0 m/s 680 mmHg 89%
    02:00 +20°C° 0,3 mm 0 m/s 680 mmHg 90%
    03:00 +20°C° 0,3 mm 0 m/s 679 mmHg 90%
    04:00 +20°C° 0,2 mm 0 m/s 680 mmHg 89%
    05:00 +20°C° 0,2 mm 0 m/s 680 mmHg 88%
    06:00 +20°C° 0,2 mm 0 m/s 681 mmHg 88%
    07:00 +22°C° 0,2 mm 0 m/s 681 mmHg 81%
    08:00 +25°C° 0,2 mm 1 m/s 682 mmHg 75%
    09:00 +27°C° 0,2 mm 1 m/s 682 mmHg 69%
    10:00 +27°C° 0,4 mm 1 m/s 682 mmHg 67%
    11:00 +28°C° 0,4 mm 1 m/s 681 mmHg 66%
    12:00 +28°C° 0,4 mm 1 m/s 681 mmHg 65%
    13:00 +28°C° 1,7 mm 1 m/s 680 mmHg 68%
    14:00 +27°C° 1,7 mm 1 m/s 680 mmHg 72%
    15:00 +26°C° 1,7 mm 1 m/s 679 mmHg 75%
    16:00 +25°C° 3 mm 1 m/s 679 mmHg 80%
    17:00 +24°C° 3 mm 1 m/s 679 mmHg 84%
    18:00 +21°C° 3 mm 0 m/s 680 mmHg 89%
    19:00 +21°C° 1,6 mm 0 m/s 680 mmHg 89%
    20:00 +21°C° 1,6 mm 0 m/s 680 mmHg 90%
    21:00 +20°C° 1,6 mm 0 m/s 681 mmHg 90%
    22:00 +20°C° 0,4 mm 0 m/s 680 mmHg 90%
    23:00 +20°C° 0,4 mm 0 m/s 680 mmHg 90%

    26 Mai, Samedi

    Heure Température Précipitation Vent Pression Humidité
    00:00 +20°C° 0,4 mm 0 m/s 680 mmHg 90%
    01:00 +20°C° 0,1 mm 0 m/s 680 mmHg 90%
    02:00 +20°C° 0,1 mm 0 m/s 679 mmHg 89%
    03:00 +20°C° 0,1 mm 0 m/s 679 mmHg 89%
    04:00 +20°C° 0 mm 0 m/s 679 mmHg 88%
    05:00 +20°C° 0 mm 0 m/s 679 mmHg 88%
    06:00 +20°C° 0 mm 0 m/s 680 mmHg 87%
    07:00 +22°C° 0 mm 0 m/s 680 mmHg 81%
    08:00 +25°C° 0 mm 1 m/s 681 mmHg 75%
    09:00 +27°C° 0 mm 1 m/s 681 mmHg 68%
    10:00 +27°C° 0,4 mm 1 m/s 681 mmHg 68%
    11:00 +27°C° 0,4 mm 1 m/s 681 mmHg 67%
    12:00 +28°C° 0,4 mm 1 m/s 680 mmHg 67%
    13:00 +27°C° 1,8 mm 1 m/s 680 mmHg 71%
    14:00 +26°C° 1,8 mm 1 m/s 679 mmHg 75%
    15:00 +25°C° 1,8 mm 1 m/s 679 mmHg 80%
    16:00 +24°C° 4,6 mm 1 m/s 679 mmHg 83%
    17:00 +23°C° 4,6 mm 1 m/s 679 mmHg 87%
    18:00 +23°C° 4,6 mm 1 m/s 679 mmHg 91%
    19:00 +20°C° 1,8 mm 0 m/s 680 mmHg 90%
    20:00 +20°C° 1,8 mm 0 m/s 680 mmHg 90%
    21:00 +20°C° 1,8 mm 0 m/s 681 mmHg 90%
    22:00 +20°C° 0,5 mm 0 m/s 680 mmHg 90%
    23:00 +20°C° 0,5 mm 0 m/s 680 mmHg 90%
    Voir plus